Location: STAR School
(35.3054°N, 111.2976°W)
Time: 21:01:12
(UTC-07:00)

Vanguard 2 - Visible Passes

Search period start: 26 May 2019 00:00
Search period end: 05 June 2019 00:00
Orbit: 552 x 2939 km, 32.9° (Epoch: 26 May)

Date Brightness Start Highest point End Pass type
(mag) Time Alt. Az. Time Alt. Az. Time Alt. Az.
26 May 9.7 20:25:15 10° W 20:40:49 68° SSW 20:48:56 17° ESE visible
26 May 9.8 22:39:50 10° W 22:49:47 30° SW 22:50:20 30° SW visible
27 May 9.7 20:43:38 10° W 20:58:43 60° SSW 21:05:44 22° SE visible
27 May 10.2 22:58:55 10° W 23:07:07 22° SW 23:07:09 22° SW visible
28 May 9.8 21:02:04 10° W 21:16:28 50° SSW 21:22:34 25° SSE visible
28 May 10.6 23:18:53 10° W 23:23:58 15° SW 23:23:58 15° SW visible
29 May 9.9 21:20:38 10° W 21:34:04 41° SW 21:39:24 25° SSE visible
30 May 10.1 21:39:24 10° W 21:51:30 32° SW 21:56:15 23° S visible
31 May 10.2 19:43:01 10° W 19:59:45 59° SSW 20:11:12 10° SE visible
31 May 10.4 21:58:35 10° W 22:08:50 24° SW 22:13:07 19° SSW visible
01 Jun 10.4 20:01:28 10° W 20:17:30 50° SSW 20:28:36 10° SE visible
01 Jun 10.7 22:18:33 10° W 22:26:03 17° SW 22:30:01 14° SSW visible
02 Jun 10.6 20:20:02 10° W 20:35:07 41° SW 20:45:31 11° SSE visible
02 Jun 11.0 22:41:42 10° WSW 22:43:14 10° SW 22:44:41 10° SW visible
03 Jun 10.7 20:38:51 10° W 20:52:35 33° SW 21:02:27 11° SSE visible
04 Jun 10.9 20:58:07 10° W 21:09:56 25° SW 21:19:07 10° S visible
